Powrót do katalogu

STARLINK-35325

AktywnyŁącznośćVLEO
NORAD 66080·PAYLOAD·🇺🇸 United States

Wystrzelony Oct 19, 2025 z Cape Canaveral Space Force Station

Loading…

Następne Przeloty (najbliższe 24 godziny)

TLE

ŚwieżeSource: CelesTrak SupGP

Epoka: Sep 14, 2026, 22:49 UTC

1 66080C 25235Y   26257.95118056  .00016196  00000+0  47864-3 0  2575
2 66080  53.1582  83.2961 0001228  78.2072 105.6164 15.34374228    17

Śledź STARLINK-35325 w czasie rzeczywistym z AllMySat

Download on the App Store